EWG24M EDDH-EDLW

Flight info

Callsign EWG24M
Flight time 0h 38m
Altitude 20000
Route HABFU1G/33 HABFU Y348 DOMEG DOMEG2A
Aircraft A21N/M-SDE2E3FGHIRWXY/LB1

Departure

Time 2026-05-04 13:29
Airport Hamburg Helmut Schmidt Airport (EDDH)

Arrival

Time 2026-05-04 14:07
Airport Dortmund Airport (EDLW)
Time Latitude Longitude Altitude Speed Heading
2026-05-04 13:19 53.62805 10.00238 50 ft 0 kts 62°
2026-05-04 13:25 53.62800 10.00221 54 ft 2 kts 62°
2026-05-04 13:25 53.62792 10.00196 50 ft 2 kts 60°
2026-05-04 13:25 53.62784 10.00173 50 ft 2 kts 56°
2026-05-04 13:25 53.62773 10.00151 52 ft 2 kts 37°
2026-05-04 13:26 53.62759 10.00146 48 ft 1 kts 338°
2026-05-04 13:26 53.62755 10.00149 49 ft 0 kts 334°
2026-05-04 13:27 53.62763 10.00143 47 ft 4 kts 334°
2026-05-04 13:28 53.62805 10.00108 54 ft 10 kts 334°
2026-05-04 13:28 53.62854 10.00025 51 ft 2 kts 290°
2026-05-04 13:28 53.62834 9.99930 50 ft 15 kts 245°
2026-05-04 13:28 53.62828 9.99777 49 ft 10 kts 320°
2026-05-04 13:29 53.63003 9.99628 52 ft 63 kts 333°
2026-05-04 13:29 53.63639 9.99080 53 ft 142 kts 333°
2026-05-04 13:29 53.64651 9.98200 305 ft 176 kts 333°
2026-05-04 13:29 53.65778 9.97243 923 ft 186 kts 331°
2026-05-04 13:30 53.66955 9.96220 1620 ft 193 kts 330°
2026-05-04 13:30 53.68167 9.95118 2349 ft 212 kts 328°
2026-05-04 13:30 53.69582 9.93865 3002 ft 241 kts 329°
2026-05-04 13:30 53.71074 9.92468 4114 ft 246 kts 319°
2026-05-04 13:31 53.72020 9.90113 5305 ft 247 kts 283°
2026-05-04 13:31 53.71935 9.87227 6447 ft 252 kts 250°
2026-05-04 13:31 53.71165 9.84535 7547 ft 257 kts 243°
2026-05-04 13:31 53.70361 9.81862 8661 ft 260 kts 245°
2026-05-04 13:32 53.69616 9.79044 9810 ft 264 kts 248°
2026-05-04 13:32 53.68928 9.76122 10683 ft 277 kts 250°
2026-05-04 13:32 53.68232 9.72913 11156 ft 304 kts 251°
2026-05-04 13:32 53.67514 9.69432 11776 ft 321 kts 251°
2026-05-04 13:33 53.66789 9.65853 12654 ft 329 kts 251°
2026-05-04 13:33 53.66049 9.62160 13677 ft 334 kts 251°
2026-05-04 13:33 53.65339 9.58387 14622 ft 338 kts 252°
2026-05-04 13:33 53.64196 9.54912 15563 ft 344 kts 229°
2026-05-04 13:34 53.62266 9.52568 16521 ft 354 kts 207°
2026-05-04 13:34 53.59911 9.51195 17470 ft 359 kts 201°
2026-05-04 13:34 53.57545 9.49818 18400 ft 360 kts 205°
2026-05-04 13:34 53.55213 9.48199 19158 ft 363 kts 207°
2026-05-04 13:35 53.52918 9.46401 19724 ft 364 kts 210°
2026-05-04 13:35 53.48412 9.42541 19993 ft 366 kts 211°
2026-05-04 13:35 53.46152 9.40529 19987 ft 367 kts 211°
2026-05-04 13:36 53.43999 9.38594 19987 ft 368 kts 212°
2026-05-04 13:36 53.41740 9.36555 19990 ft 368 kts 212°
2026-05-04 13:36 53.39513 9.34541 19989 ft 368 kts 212°
2026-05-04 13:36 53.37260 9.32504 19961 ft 368 kts 212°
2026-05-04 13:37 53.35004 9.30463 19974 ft 368 kts 211°
2026-05-04 13:37 53.32761 9.28389 19977 ft 368 kts 212°
2026-05-04 13:37 53.30372 9.26806 19980 ft 375 kts 195°
2026-05-04 13:37 53.28664 9.26344 19980 ft 377 kts 192°
2026-05-04 13:38 53.26296 9.25822 19976 ft 377 kts 192°
2026-05-04 13:38 53.23696 9.25224 19979 ft 377 kts 193°
2026-05-04 13:38 53.21103 9.24565 19978 ft 377 kts 193°
2026-05-04 13:38 53.18508 9.23858 19976 ft 377 kts 194°
2026-05-04 13:39 53.15956 9.23136 19977 ft 376 kts 194°
2026-05-04 13:39 53.13368 9.22387 19977 ft 376 kts 194°
2026-05-04 13:39 53.10784 9.21632 19978 ft 376 kts 194°
2026-05-04 13:39 53.08204 9.20874 19978 ft 376 kts 194°
2026-05-04 13:40 53.05652 9.20122 19978 ft 376 kts 194°
2026-05-04 13:40 53.04912 9.19904 19981 ft 376 kts 194°
2026-05-04 13:40 53.02329 9.19143 19980 ft 376 kts 194°
2026-05-04 13:40 52.99743 9.18382 19980 ft 376 kts 194°
2026-05-04 13:41 52.97163 9.17622 19978 ft 376 kts 194°
2026-05-04 13:41 52.94573 9.16897 19974 ft 375 kts 197°
2026-05-04 13:41 52.92177 9.15440 19979 ft 369 kts 208°
2026-05-04 13:42 52.87701 9.11305 19981 ft 368 kts 214°
2026-05-04 13:42 52.85493 9.09097 19977 ft 370 kts 213°
2026-05-04 13:42 52.83269 9.06934 19977 ft 370 kts 212°
2026-05-04 13:42 52.81052 9.04858 19975 ft 371 kts 212°
2026-05-04 13:43 52.78792 9.02814 19970 ft 371 kts 211°
2026-05-04 13:43 52.76509 9.00797 19973 ft 371 kts 211°
2026-05-04 13:43 52.74225 8.98807 19970 ft 371 kts 211°
2026-05-04 13:43 52.71934 8.96824 19957 ft 371 kts 210°
2026-05-04 13:44 52.69645 8.94847 19961 ft 371 kts 210°
2026-05-04 13:44 52.67362 8.92873 19964 ft 371 kts 210°
2026-05-04 13:44 52.65096 8.90910 19957 ft 372 kts 210°
2026-05-04 13:44 52.62810 8.88929 19960 ft 372 kts 210°
2026-05-04 13:45 52.60508 8.86936 19961 ft 372 kts 210°
2026-05-04 13:45 52.58212 8.84949 19961 ft 372 kts 210°
2026-05-04 13:45 52.55921 8.82969 19961 ft 372 kts 210°
2026-05-04 13:45 52.53625 8.80987 19961 ft 372 kts 210°
2026-05-04 13:46 52.51357 8.79031 19967 ft 372 kts 210°
2026-05-04 13:46 52.49061 8.77054 19968 ft 372 kts 210°
2026-05-04 13:46 52.46767 8.75081 19968 ft 372 kts 210°
2026-05-04 13:46 52.44468 8.73105 19968 ft 372 kts 210°
2026-05-04 13:47 52.42170 8.71133 19961 ft 373 kts 210°
2026-05-04 13:47 52.39867 8.69159 19963 ft 373 kts 210°
2026-05-04 13:47 52.37563 8.67187 19963 ft 374 kts 210°
2026-05-04 13:47 52.35255 8.65214 19964 ft 374 kts 210°
2026-05-04 13:48 52.32945 8.63241 19962 ft 374 kts 210°
2026-05-04 13:48 52.30668 8.61299 19963 ft 374 kts 210°
2026-05-04 13:48 52.28362 8.59322 19961 ft 374 kts 211°
2026-05-04 13:48 52.26238 8.56816 19967 ft 385 kts 222°
2026-05-04 13:49 52.24317 8.53808 19961 ft 377 kts 227°
2026-05-04 13:49 52.22563 8.50648 19965 ft 372 kts 230°
2026-05-04 13:49 52.20900 8.47477 19957 ft 371 kts 230°
2026-05-04 13:49 52.20335 8.46392 19963 ft 371 kts 230°
2026-05-04 13:50 52.18746 8.43353 19966 ft 370 kts 230°
2026-05-04 13:50 52.17056 8.40180 19965 ft 370 kts 229°
2026-05-04 13:50 52.15346 8.37035 19970 ft 371 kts 228°
2026-05-04 13:50 52.14201 8.34957 19965 ft 372 kts 228°
2026-05-04 13:51 52.12467 8.31842 19965 ft 372 kts 228°
2026-05-04 13:51 52.11307 8.29773 19965 ft 372 kts 227°
2026-05-04 13:51 52.10210 8.27823 19967 ft 373 kts 227°
2026-05-04 13:51 52.08456 8.24712 19968 ft 373 kts 227°
2026-05-04 13:52 52.04970 8.18538 19968 ft 373 kts 227°
2026-05-04 13:52 52.03211 8.15426 19969 ft 373 kts 227°
2026-05-04 13:52 52.01455 8.12320 19968 ft 373 kts 227°
2026-05-04 13:53 51.99697 8.09213 19964 ft 373 kts 227°
2026-05-04 13:53 51.97961 8.06148 19972 ft 372 kts 227°
2026-05-04 13:53 51.96205 8.03051 19973 ft 372 kts 227°
2026-05-04 13:54 51.93940 7.99062 19973 ft 372 kts 227°
2026-05-04 13:54 51.92189 7.95984 19973 ft 372 kts 227°
2026-05-04 13:54 51.88691 7.89846 19971 ft 372 kts 227°
2026-05-04 13:55 51.86964 7.86820 19961 ft 355 kts 227°
2026-05-04 13:55 51.83941 7.81514 19953 ft 288 kts 227°
2026-05-04 13:55 51.82637 7.79211 19913 ft 270 kts 227°
2026-05-04 13:56 51.81360 7.77018 19594 ft 266 kts 221°
2026-05-04 13:56 51.79746 7.75619 19093 ft 265 kts 195°
2026-05-04 13:56 51.77317 7.75870 17930 ft 277 kts 161°
2026-05-04 13:57 51.75762 7.77618 16913 ft 290 kts 135°
2026-05-04 13:57 51.74772 7.80449 15891 ft 301 kts 110°
2026-05-04 13:58 51.75971 7.90352 12868 ft 316 kts 63°
2026-05-04 13:58 51.77991 7.96738 10848 ft 319 kts 69°
2026-05-04 13:58 51.78410 8.00171 9892 ft 316 kts 92°
2026-05-04 13:59 51.77984 8.03607 8842 ft 310 kts 116°
2026-05-04 13:59 51.76788 8.06439 7804 ft 302 kts 139°
2026-05-04 13:59 51.73284 8.09785 5831 ft 287 kts 169°
2026-05-04 14:00 51.71337 8.09854 4894 ft 279 kts 194°
2026-05-04 14:00 51.69220 8.08099 4132 ft 259 kts 219°
2026-05-04 14:00 51.67961 8.06145 3693 ft 245 kts 232°
2026-05-04 14:01 51.67018 8.03947 3281 ft 233 kts 237°
2026-05-04 14:01 51.66180 8.01795 2995 ft 222 kts 238°
2026-05-04 14:01 51.65123 7.98935 2995 ft 223 kts 240°
2026-05-04 14:02 51.64385 7.96879 2995 ft 223 kts 240°
2026-05-04 14:02 51.63608 7.94711 2994 ft 223 kts 240°
2026-05-04 14:02 51.62837 7.92561 2995 ft 224 kts 240°
2026-05-04 14:02 51.62062 7.90384 2992 ft 224 kts 240°
2026-05-04 14:03 51.61286 7.88208 2993 ft 224 kts 240°
2026-05-04 14:03 51.60523 7.86069 2992 ft 223 kts 240°
2026-05-04 14:03 51.59776 7.83891 2993 ft 219 kts 242°
2026-05-04 14:03 51.59065 7.81829 2987 ft 204 kts 240°
2026-05-04 14:04 51.57680 7.77914 2628 ft 201 kts 241°
2026-05-04 14:04 51.56996 7.75955 2339 ft 199 kts 241°
2026-05-04 14:04 51.56332 7.74062 2061 ft 189 kts 241°
2026-05-04 14:05 51.55555 7.71847 1778 ft 167 kts 241°
2026-05-04 14:05 51.55017 7.70310 1537 ft 151 kts 240°
2026-05-04 14:05 51.54527 7.68912 1351 ft 137 kts 239°
2026-05-04 14:06 51.54066 7.67590 1158 ft 134 kts 242°
2026-05-04 14:06 51.53613 7.66273 952 ft 135 kts 239°
2026-05-04 14:06 51.53160 7.64984 801 ft 135 kts 242°
2026-05-04 14:06 51.52695 7.63662 591 ft 133 kts 244°
2026-05-04 14:07 51.52244 7.62384 424 ft 129 kts 242°
2026-05-04 14:07 51.51851 7.61264 419 ft 81 kts 240°
2026-05-04 14:07 51.51609 7.60574 419 ft 62 kts 240°
2026-05-04 14:07 51.51481 7.60251 415 ft 15 kts 206°
2026-05-04 14:08 51.51423 7.60255 424 ft 12 kts 158°
2026-05-04 14:08 51.51383 7.60292 428 ft 9 kts 137°
2026-05-04 14:08 51.51360 7.60361 430 ft 6 kts 89°
2026-05-04 14:08 51.51401 7.60512 421 ft 24 kts 61°
2026-05-04 14:09 51.51567 7.61009 428 ft 13 kts 95°
2026-05-04 14:09 51.51539 7.61056 427 ft 5 kts 168°
2026-05-04 14:10 51.51449 7.61056 436 ft 0 kts 140°
2026-05-04 14:10 51.51448 7.61057 435 ft 0 kts 141°